Location: Alma
(38.7220°N, 88.9090°W)
Time: 00:10:20
(UTC-06:00)

Vanguard 2 - Pass Details

Date: 16 November 2019
Orbit: 553 x 2938 km, 32.9° (Epoch: 06 December)

Event Time Altitude Azimuth Distance (km) Brightness Sun altitude
Rises 07:32:33 0° 220° (SW) 5,625 11.9 8.4°
Reaches altitude 10° 07:37:35 10° 209° (SSW) 4,175 11.4 9.2°
Maximum altitude 07:45:29 25° 160° (SSE) 2,437 11.1 10.5°
Drops below altitude 10° 07:50:58 10° 108° (ESE) 2,813 12.2 11.4°
Sets 07:53:37 0° 94° (E) 3,492 12.0 11.8°
